Terminal Aerodrome Forecast
Issued by NWS Columbia, SC

Home | Current Version | Previous Version | Text Only | Print | Product List | Glossary On
Versions: 1 2 3 4 5 6 7 8 9 10 11 12 13 14 15 16 17 18 19 20 21 22 23 24 25 26 27 28 29 30 31 32 33 34 35 36 37 38 39 40 41 42 43
288
FTAK31 PAJN 240522
TAFAGS
TAF
PAGS 240522Z 2406/2506 VRB03KT P6SM -RA BKN005 OVC020
      TEMPO 2406/2410 4SM -RA BR OVC008
     FM241800 VRB05KT P6SM SCT010 OVC025
      AMD LTD TO CLD VIS AND WIND=

USA.gov is the U.S. government's official web portal to all federal, state and local government web resources and services.